TimeCDT,TemperatureF,Dew PointF,Humidity,Sea Level PressureIn,VisibilityMPH,Wind Direction,Wind SpeedMPH,Gust SpeedMPH,PrecipitationIn,Events,Conditions,WindDirDegrees,DateUTC
12:53 AM,64.9,45.0,48,30.04,10.0,NNE,20.7,31.1,N/A,,Clear,20,2013-04-19 05:53:00
1:53 AM,63.0,43.0,48,30.05,10.0,NNE,17.3,29.9,N/A,,Partly Cloudy,20,2013-04-19 06:53:00
2:53 AM,63.0,41.0,45,30.08,10.0,NNE,23.0,32.2,N/A,,Overcast,30,2013-04-19 07:53:00
3:53 AM,62.1,39.9,44,30.09,10.0,NNE,21.9,29.9,N/A,,Mostly Cloudy,20,2013-04-19 08:53:00
4:53 AM,62.1,39.0,43,30.12,10.0,North,18.4,27.6,N/A,,Overcast,10,2013-04-19 09:53:00
5:53 AM,61.0,37.9,42,30.14,10.0,North,20.7,26.5,N/A,,Overcast,360,2013-04-19 10:53:00
6:53 AM,61.0,35.1,38,30.18,10.0,North,24.2,32.2,N/A,,Overcast,360,2013-04-19 11:53:00
7:53 AM,60.1,32.0,35,30.24,10.0,North,21.9,31.1,N/A,,Overcast,10,2013-04-19 12:53:00
8:53 AM,60.1,30.0,32,30.27,10.0,North,18.4,28.8,N/A,,Overcast,10,2013-04-19 13:53:00
9:53 AM,60.1,30.0,32,30.30,10.0,North,13.8,-,N/A,,Overcast,10,2013-04-19 14:53:00
10:53 AM,62.1,28.0,28,30.32,10.0,North,16.1,-,N/A,,Overcast,360,2013-04-19 15:53:00
11:53 AM,66.0,26.1,22,30.32,10.0,NNE,15.0,21.9,N/A,,Mostly Cloudy,20,2013-04-19 16:53:00
12:53 PM,68.0,26.1,21,30.31,10.0,NNE,13.8,24.2,N/A,,Overcast,30,2013-04-19 17:53:00
1:53 PM,68.0,21.9,17,30.28,10.0,NNE,16.1,24.2,N/A,,Overcast,20,2013-04-19 18:53:00
2:53 PM,70.0,21.0,16,30.26,10.0,North,10.4,18.4,N/A,,Mostly Cloudy,10,2013-04-19 19:53:00
3:53 PM,70.0,23.0,17,30.23,10.0,ENE,9.2,-,N/A,,Scattered Clouds,60,2013-04-19 20:53:00
4:53 PM,72.0,23.0,16,30.20,10.0,NNE,9.2,-,N/A,,Clear,20,2013-04-19 21:53:00
5:53 PM,70.0,23.0,17,30.19,10.0,Calm,Calm,-,N/A,,Clear,0,2013-04-19 22:53:00
6:53 PM,70.0,23.0,17,30.18,10.0,East,4.6,-,N/A,,Clear,100,2013-04-19 23:53:00
7:53 PM,66.9,26.1,21,30.19,10.0,SE,8.1,-,N/A,,Clear,140,2013-04-20 00:53:00
8:53 PM,63.0,34.0,34,30.20,10.0,SSE,6.9,-,N/A,,Clear,150,2013-04-20 01:53:00
9:53 PM,61.0,35.1,38,30.22,10.0,SE,8.1,-,N/A,,Clear,140,2013-04-20 02:53:00
10:53 PM,59.0,37.0,44,30.23,10.0,SE,6.9,-,N/A,,Clear,140,2013-04-20 03:53:00
11:53 PM,55.9,39.0,53,30.23,10.0,SE,5.8,-,N/A,,Clear,140,2013-04-20 04:53:00